Location: The Rolnick Observatory
(41.1711°N, 73.3275°W)
Time: 03:09:26
(UTC-04:00)

Envisat - Pass Details

Date: 24 February 2019
Orbit: 764 x 766 km, 98.1° (Epoch: 21 October)

Event Time Altitude Azimuth Distance (km) Brightness Sun altitude
Rises 19:41:14 0° 204° (SSW) 3,217 6.4 -23.9°
Reaches altitude 10° 19:44:07 10° 221° (SW) 2,296 5.8 -24.4°
Maximum altitude 19:47:47 20° 268° (W) 1,713 5.6 -25.1°
Drops below altitude 10° 19:51:29 10° 314° (NW) 2,307 6.2 -25.8°
Sets 19:54:24 0° 332° (NNW) 3,239 6.8 -26.3°
